BEIDOU-3 M13 (C32)

Last updated on Aug. 8, 2020, 5:33 a.m. UTC

1 43622U 18072A   20220.51841928 -.00000011  00000-0  00000-0 0  9992
2 43622  55.1570 134.2002 0007232 292.8958 250.0130  1.86231943 12800
UTC
Height (km)
Latitude
Longitude
Inclination
Orbital Period
UTC large
Height (km)
Speed (km/s)
/
Latitude / Longitude
Inclination (degrees)
Orbital Period (minutes)
Azimuth
Elevation
Range (km)
Doppler Factor
iOS Compass Heading
iOS Angle

Next 30 passes for location: Hong Kong

Rise time Rise Azimuth (degrees) Set time Set Azimuth (degrees) Duration Max altitude (degrees)

No matching passes for this satellites